Regional Weather Roundup
Issued by NWS

Home | Current Version | Previous Version | Graphics & Text | Print | Product List | Glossary On
Versions: 1 2 3 4 5 6 7 8 9 10 11 12 13 14 15 16 17 18 19 20 21 22 23 24 25 26 27 28 29 30 31 32 33 34 35 36 37 38 39 40 41 42 43 44 45 46 47 48 49 50
597
ASUS44 KLIX 231701
RWRLA
LOUISIANA WEATHER ROUNDUP
NATIONAL WEATHER SERVICE NEW ORLEANS LA
1200 PM CDT TUE SEP 23 2014

NOTE: "FAIR" INDICATES FEW OR NO CLOUDS BELOW 12,000 FEET WITH NO
      SIGNIFICANT WEATHER AND/OR OBSTRUCTIONS TO VISIBILITY.
      SKY/WX - SKY CONDITION AND SIGNIFICANT WEATHER.
      TMP - AIR TEMPERATURE.    DP   - DEWPOINT TEMPERATURE.
      RH  - RELATIVE HUMIDITY.  PRES - PRESSURE.
      HX  - HEAT INDEX.         WCI  - WIND CHILL INDEX.

*  THESE STATIONS ARE NOT NWS OR FAA STATIONS AND ARE NOT UNDER
   NWS QUALITY CONTROL.

LAZ040-048-061>063-065-066-069-231800-
SOUTHEAST LOUISIANA

CITY           SKY/WX    TMP DP  RH WIND       PRES   REMARKS
N.O. AUDUBON     N/A     83  55  37 MISG        N/A
N.O. INTL ARPT MOSUNNY   81  57  43 NE13      30.10F
N.O. LAKEFRONT SUNNY     79  58  48 NE12      30.11F
N.O. DOWNTOWN* FAIR      81  52  36 N8        30.10F
SLIDELL        SUNNY     80  55  42 NE7       30.10F
BATON ROUGE    SUNNY     80  55  42 NE8       30.12F
BOOTHVILLE     SUNNY     81  65  58 NE13G20   30.08S
BELLE CHASSE   MOSUNNY   81  56  42 NE14      30.09F
BOGALUSA*        N/A     80  54  40 E7        30.14S
GALLIANO*      NOT AVBL
NEW ROADS*     FAIR      78  55  44 NE7       30.13F
GONZALES*      FAIR      80  57  45 E7        30.11F
HAMMOND*       NOT AVBL
HOUMA*         SUNNY     82  23  11 NE12      30.09F
PORT FOURCHON* SUNNY     81  64  57 NE15G22   30.11S

$$

LAZ041-044-053-054-231800-
SOUTHWEST LOUISIANA

CITY           SKY/WX    TMP DP  RH WIND       PRES   REMARKS
LAKE CHARLES   SUNNY     79  58  48 NE10      30.12F
LAFAYETTE      SUNNY     80  57  45 E7        30.12F
PATTERSON      SUNNY     81  61  50 NE13      30.13S
SALT POINT       N/A     84  60  44 VRB7      30.09S
NEW IBERIA     SUNNY     82  58  43 E12       30.12F
CHENAULT AIRPK SUNNY     79  61  53 E9        30.13R

$$

LAZ027-028-231800-
CENTRAL LOUISIANA

CITY           SKY/WX    TMP DP  RH WIND       PRES   REMARKS
FORT POLK      NOT AVBL
ALEXANDRIA INT SUNNY     78  56  46 VRB6      30.15S
ALEXANDRIA     SUNNY     77  57  50 E3        30.16F

$$

LAZ001-002-231800-
NORTHWEST LOUISIANA

CITY           SKY/WX    TMP DP  RH WIND       PRES   REMARKS
SHREVEPORT     PTSUNNY   78  51  38 VRB7      30.19F
BARKSDALE AFB  SUNNY     77  50  38 VRB5      30.19F
DTN SHREVEPORT SUNNY     77  52  41 VRB7      30.19F

$$

LAZ014-016-231800-
NORTHEAST LOUISIANA

CITY           SKY/WX    TMP DP  RH WIND       PRES   REMARKS
MONROE         SUNNY     77  51  40 VRB6      30.20S
TALLULAH       SUNNY     77  51  40 NE8       30.18S

$$




USA.gov is the U.S. government's official web portal to all federal, state and local government web resources and services.